Torna al catalogo

COSMOS 2251 DEB

AttivoLEO
NORAD 37973·DEBRIS·🇷🇺 Russia

Lanciato Jun 16, 1993 da Plesetsk Cosmodrome

Loading…

Prossimi Passaggi (prossime 24 ore)

TLE

In scadenzaSource: Space-Track

Epoca: Sep 12, 2026, 02:22 UTC

1 37973U 93036BPY 26255.09902512  .00000891  00000-0  27315-3 0  9997
2 37973  74.0262 156.3761 0037129 166.6355 193.5795 14.42748396689308

Traccia COSMOS 2251 DEB in tempo reale con AllMySat

Download on the App Store